(509309) = 2006 WJ1 = 2007 EM199 = 2011 YB69

Discovered at Kitt Peak on 2006-11-16 by Spacewatch.

Orbit

Orbit type: Main Belt

Note: WebGL enabled browser required.

epoch2024-03-31.0
epoch JD2460400.5
perihelion date2023-06-22.66410
perihelion JD2460118.16410
argument of perihelion (°)325.37478
ascending node (°)136.86111
inclination (°)30.56498
eccentricity0.3263623
perihelion distance (AU)2.1425254
Tisserand w.r.t. Jupiter2.9
ΔV w.r.t. Earth (km/sec)13.0
semimajor axis (AU)3.1805307
mean anomaly (°)49.05921
mean daily motion (°/day)0.17376190
aphelion distance (AU)4.219
period (years)5.67
P-vector [x]-0.26592099
P-vector [y]0.95871801
P-vector [z]0.10072639
Q-vector [x]-0.89910278
Q-vector [y]-0.28435105
Q-vector [z]0.33280425
absolute magnitude16.21
phase slope0.15
uncertainty0
referenceMPEC 2024-E179
observations used291
oppositions8
arc length (days)6327
first opposition used2006
last opposition used2024
residual rms (arc-secs)0.78
perturbers coarse indicatorM-v
perturbers precise indicator003Ek
first observation date used2006-11-16.0
last observation date used2024-03-13.0
computer nameMPCLINUX
JD of orbit computation2458143.193677
perihelion JD uncertainty (days)9.7892E-05
argument of perihelion uncertainty (°)2.9870E-05
ascending node uncertainty (°)8.9251E-06
inclination uncertainty (°)1.1081E-05
eccentricity uncertainty 7.9756E-08
perihelion distance uncertainty (AU)2.5764E-07
Minimum Orbit Intersection Distances (in AU)
for orbit epoch: 2460400.5, reference: E2024-FB1
Mercury1.84999
Venus1.46486
Earth1.20329
Mars0.58039
Jupiter1.13016
Saturn5.94609
Uranus15.6729
Neptune26.1507

Observations

295 total observations over interval: 2006 11 16.49195 – 2024 03 13.340854
These data are available for download (format description).

Date (UT) J2000 RA J2000 Dec Magn Location Ref
2006 11 16.49195 11 08 47.19 +07 18 37.5 20.9 V 691 – Steward Observatory, Kitt Peak-Spacewatch MPS 188998
2006 11 16.50441 11 08 48.41 +07 18 38.1 21.0 V 691 – Steward Observatory, Kitt Peak-Spacewatch MPS 188998
2006 11 16.51688 11 08 49.70 +07 18 38.8 21.1 V 691 – Steward Observatory, Kitt Peak-Spacewatch MPS 188998
2006 11 17.51769 11 10 30.33 +07 19 21.2 21.2 V 291 – LPL/Spacewatch II MPS 188998
2006 11 17.52171 11 10 30.79 +07 19 21.4 21.6 V 291 – LPL/Spacewatch II MPS 188998
2006 11 17.52683 11 10 31.33 +07 19 21.2 20.9 V 291 – LPL/Spacewatch II MPS 188998
2006 11 17.53065 11 10 31.65 +07 19 20.7   G96 – Mt. Lemmon Survey MPS 188998
2006 11 17.53484 11 10 32.11 +07 19 21.7   G96 – Mt. Lemmon Survey MPS 188998
2006 11 17.53913 11 10 32.52 +07 19 21.9   G96 – Mt. Lemmon Survey MPS 188998
2006 11 18.48884 11 12 07.59 +07 20 08.8 20.8 V G96 – Mt. Lemmon Survey MPS 188998
2006 11 18.49237 11 12 07.92 +07 20 09.2 20.1 V G96 – Mt. Lemmon Survey MPS 188998
2006 11 18.49591 11 12 08.28 +07 20 09.3 20.9 V G96 – Mt. Lemmon Survey MPS 188998
2006 11 18.49946 11 12 08.64 +07 20 09.7 20.4 V G96 – Mt. Lemmon Survey MPS 188998
2006 11 18.50961 11 12 09.64 +07 20 10.2 20.7 V G96 – Mt. Lemmon Survey MPS 188998
2006 11 18.52781 11 12 11.41 +07 20 11.4 20.5 V G96 – Mt. Lemmon Survey MPS 188998
2006 11 18.53304 11 12 11.95 +07 20 11.9 20.5 V G96 – Mt. Lemmon Survey MPS 188998
2006 11 18.53833 11 12 12.42 +07 20 12.9 17.8 V G96 – Mt. Lemmon Survey MPS 188998
2006 11 19.50631 11 13 48.82 +07 21 08.3 19.8 V G96 – Mt. Lemmon Survey MPS 188998
2006 11 19.51170 11 13 49.29 +07 21 09.2 20.4 V G96 – Mt. Lemmon Survey MPS 188998
2006 11 19.51715 11 13 49.87 +07 21 09.3 20.0 V G96 – Mt. Lemmon Survey MPS 188998
2006 11 19.52260 11 13 50.41 +07 21 10.1 20.0 V G96 – Mt. Lemmon Survey MPS 188998
2006 11 20.47365 11 15 24.51 +07 22 13.2 20.3 V G96 – Mt. Lemmon Survey MPS 188998
2006 11 20.47558 11 15 24.69 +07 22 13.8 20.7 V G96 – Mt. Lemmon Survey MPS 188998
2006 11 20.47752 11 15 24.87 +07 22 13.5 21.1 V G96 – Mt. Lemmon Survey MPS 188998
2006 11 20.47947 11 15 25.09 +07 22 14.1 20.2 V G96 – Mt. Lemmon Survey MPS 188998
2007 01 28.44608 12 32 25.54 +17 12 01.9 20.2 V 703 – Catalina Sky Survey MPS 511112
2007 01 28.45091 12 32 25.65 +17 12 07.2 20.2 V 703 – Catalina Sky Survey MPS 511112
2007 01 28.45583 12 32 25.72 +17 12 11.9 20.4 V 703 – Catalina Sky Survey MPS 511112
2007 01 28.46073 12 32 25.87 +17 12 16.4 20.1 V 703 – Catalina Sky Survey MPS 511112
2007 02 23.35130 12 31 56.64 +25 17 32.8 20.0 V 703 – Catalina Sky Survey MPS 511112
2007 02 23.35889 12 31 56.46 +25 17 43.1 20.0 V 703 – Catalina Sky Survey MPS 511112
2007 02 23.36652 12 31 56.24 +25 17 51.5 20.2 V 703 – Catalina Sky Survey MPS 511112
2007 02 23.37414 12 31 56.10 +25 17 59.8 20.6 V 703 – Catalina Sky Survey MPS 511112
2007 03 15.41399 12 19 59.44 +30 53 13.5 19.4 V 703 – Catalina Sky Survey MPS 204827
2007 03 15.42057 12 19 59.12 +30 53 18.4 19.3 V 703 – Catalina Sky Survey MPS 204827
2007 03 15.42718 12 19 58.62 +30 53 24.8 19.2 V 703 – Catalina Sky Survey MPS 204827
2007 03 15.43383 12 19 58.26 +30 53 33.3 20.0 V 703 – Catalina Sky Survey MPS 204827
2007 03 17.40977 12 18 29.62 +31 19 51.1 20.4 V 703 – Catalina Sky Survey MPS 204827
2007 03 17.42112 12 18 29.19 +31 19 58.8 19.6 V 703 – Catalina Sky Survey MPS 204827
2007 03 17.43242 12 18 28.54 +31 20 07.7 19.4 V 703 – Catalina Sky Survey MPS 204827
2007 03 17.44373 12 18 28.15 +31 20 16.5 19.8 V 703 – Catalina Sky Survey MPS 204827
2011 12 24.60286 04 40 01.02 -22 48 37.7 19.6 V E12 – Siding Spring Survey MPS 406089
2011 12 24.61719 04 40 00.33 -22 48 23.9 19.6 V E12 – Siding Spring Survey MPS 406089
2011 12 24.63141 04 39 59.76 -22 48 12.4 19.0 V E12 – Siding Spring Survey MPS 406089
2011 12 25.64133 04 39 17.46 -22 33 20.3 19.6 V E12 – Siding Spring Survey MPS 406089
2011 12 25.65081 04 39 17.02 -22 33 11.9 19.1 V E12 – Siding Spring Survey MPS 406089
2011 12 25.66036 04 39 16.63 -22 33 03.1 19.5 V E12 – Siding Spring Survey MPS 406089
2011 12 25.66978 04 39 16.23 -22 32 53.9 19.7 V E12 – Siding Spring Survey MPS 406089
2016 07 11.56556 00 06 33.518 -15 17 25.01 21.8 w F51 – Pan-STARRS 1, Haleakala MPS 719400
2016 07 11.57806 00 06 33.770 -15 17 30.90 21.8 w F51 – Pan-STARRS 1, Haleakala MPS 719400
2016 07 11.60304 00 06 34.290 -15 17 42.41 22.0 w F51 – Pan-STARRS 1, Haleakala MPS 719400
2016 08 07.57978 00 09 50.657 -19 44 58.33 21.5 w F51 – Pan-STARRS 1, Haleakala MPS 723416
2016 08 07.59032 00 09 50.562 -19 45 05.84 21.3 w F51 – Pan-STARRS 1, Haleakala MPS 723416
2016 08 07.60089 00 09 50.449 -19 45 13.36 21.3 w F51 – Pan-STARRS 1, Haleakala MPS 723416
2016 08 11.54773 00 09 07.994 -20 33 17.86 21.7 w F51 – Pan-STARRS 1, Haleakala MPS 723416
2016 08 11.55909 00 09 07.807 -20 33 26.31 21.4 w F51 – Pan-STARRS 1, Haleakala MPS 723416
2016 08 30.46274 00 01 29.710 -24 37 32.95 21.0 w F51 – Pan-STARRS 1, Haleakala MPS 725571
2016 08 30.47242 00 01 29.369 -24 37 40.55 21.0 w F51 – Pan-STARRS 1, Haleakala MPS 725571
2016 08 30.48212 00 01 29.013 -24 37 48.05 20.8 w F51 – Pan-STARRS 1, Haleakala MPS 725571
2016 08 30.49179 00 01 28.665 -24 37 55.43 20.8 w F51 – Pan-STARRS 1, Haleakala MPS 725571
2016 09 07.43189 23 56 26.230 -26 18 29.90 20.8 w F51 – Pan-STARRS 1, Haleakala MPS 727713
2016 09 07.44153 23 56 25.812 -26 18 36.95 20.9 w F51 – Pan-STARRS 1, Haleakala MPS 727713
2016 09 07.45117 23 56 25.401 -26 18 44.08 20.7 w F51 – Pan-STARRS 1, Haleakala MPS 727713
2016 09 07.46081 23 56 24.979 -26 18 51.23 20.8 w F51 – Pan-STARRS 1, Haleakala MPS 727713
2017 12 20.40079 09 55 38.24 +02 33 21.9 19.8 G G96 – Mt. Lemmon Survey MPS 849147
2017 12 20.40597 09 55 38.37 +02 33 24.9 19.6 G G96 – Mt. Lemmon Survey MPS 849147
2017 12 20.41113 09 55 38.51 +02 33 27.8 19.7 G G96 – Mt. Lemmon Survey MPS 849147
2017 12 20.41629 09 55 38.66 +02 33 31.1 19.6 G G96 – Mt. Lemmon Survey MPS 849147
2017 12 22.42882 09 56 33.25 +02 53 53.5 20.0 G 703 – Catalina Sky Survey MPS 849147
2017 12 22.43406 09 56 33.42 +02 53 57.1 19.9 G 703 – Catalina Sky Survey MPS 849147
2017 12 22.43931 09 56 33.55 +02 54 01.7 19.3 G 703 – Catalina Sky Survey MPS 849147
2017 12 22.44454 09 56 33.67 +02 54 03.7 19.6 G 703 – Catalina Sky Survey MPS 849147
2017 12 22.59129 09 56 37.316 +02 55 37.62 19.6 w F51 – Pan-STARRS 1, Haleakala MPS 870076
2017 12 22.60419 09 56 37.611 +02 55 45.81 19.6 w F51 – Pan-STARRS 1, Haleakala MPS 870076
2017 12 22.61698 09 56 37.904 +02 55 53.96 19.8 w F51 – Pan-STARRS 1, Haleakala MPS 870076
2017 12 22.62974 09 56 38.197 +02 56 02.01 20.0 w F51 – Pan-STARRS 1, Haleakala MPS 870076
2017 12 26.33120 09 57 59.79 +03 37 47.1 19.6 G 703 – Catalina Sky Survey MPS 870076
2017 12 26.33654 09 57 59.89 +03 37 49.5 19.5 G 703 – Catalina Sky Survey MPS 870076
2017 12 26.34187 09 57 59.96 +03 37 54.4 19.7 G 703 – Catalina Sky Survey MPS 870076
2017 12 26.34721 09 58 00.08 +03 37 58.0 19.6 G 703 – Catalina Sky Survey MPS 870076
2017 12 29.51470 09 58 50.467 +04 17 59.49 19.6 i F51 – Pan-STARRS 1, Haleakala MPS 851527
2017 12 29.52797 09 58 50.611 +04 18 10.05 19.6 i F51 – Pan-STARRS 1, Haleakala MPS 851527
2017 12 29.54129 09 58 50.753 +04 18 20.76 19.5 i F51 – Pan-STARRS 1, Haleakala MPS 851527
2017 12 29.55643 09 58 50.912 +04 18 32.78 19.3 i F51 – Pan-STARRS 1, Haleakala MPS 851527
2017 12 29.56781 09 58 51.035 +04 18 41.85 19.3 i F51 – Pan-STARRS 1, Haleakala MPS 851527
2017 12 29.57919 09 58 51.150 +04 18 50.97 19.3 i F51 – Pan-STARRS 1, Haleakala MPS 851527
2018 01 12.46960 09 58 59.548 +08 01 23.29 19.5 w F51 – Pan-STARRS 1, Haleakala MPS 855519
2018 01 12.48126 09 58 59.383 +08 01 36.42 19.7 w F51 – Pan-STARRS 1, Haleakala MPS 855519
2018 01 12.49295 09 58 59.213 +08 01 49.56 19.5 w F51 – Pan-STARRS 1, Haleakala MPS 855519
2018 01 13.34103 09 58 48.34 +08 17 47.3 20.0 G 703 – Catalina Sky Survey MPS 857717
2018 01 13.35150 09 58 48.27 +08 17 58.5 19.8 G 703 – Catalina Sky Survey MPS 857717
2018 01 13.35674 09 58 48.28 +08 18 05.3 18.9 G 703 – Catalina Sky Survey MPS 857717
2018 01 14.56752 09 58 30.47 +08 41 23.1 19.1 o T08 – ATLAS-MLO, Mauna Loa MPS 857717
2018 01 14.57767 09 58 30.31 +08 41 34.0 19.2 o T08 – ATLAS-MLO, Mauna Loa MPS 857717
